Regional Weather Roundup
Issued by NWS

Home | Current Version | Previous Version | Text Only | Print | Product List | Glossary On
Versions: 1 2 3 4 5 6 7 8 9 10 11 12 13 14 15 16 17 18 19 20 21 22 23 24 25 26 27 28 29 30 31 32 33 34 35 36 37 38 39 40 41 42 43 44 45 46 47 48 49 50
000
ASUS45 KBOU 261807
RWRCO

WEATHER ROUNDUP FOR COLORADO
NATIONAL WEATHER SERVICE DENVER/BOULDER CO
1200 PM MDT FRI MAY 26 2017

NOTE: "FAIR" INDICATES FEW OR NO CLOUDS BELOW 12000 FEET WITH NO
SIGNIFICANT WEATHER AND/OR OBSTRUCTIONS TO VISIBILITY.

COZ001>005-013-030-031-261900-
...NORTHWEST COLORADO...

CITY           SKY/WX    TMP DP  RH WIND       PRES   REMARKS
CRAIG          FAIR      66  35  31 SW25G33   29.84F
HAYDEN         FAIR      63  37  39 S3        29.87S
MEEKER         FAIR      69  31  24 S22G36    29.86R
RABBIT EARS PA CLOUDY    43  32  65 S9G17     30.08S
STEAMBOAT SPGS PTSUNNY   61  42  49 SW3       29.88F
WALDEN           N/A     55  32  41 SW17G32   29.96F
$$

COZ006>008-011-261900-
...WEST CENTRAL VALLEYS...

CITY           SKY/WX    TMP DP  RH WIND       PRES   REMARKS
GRAND JUNCTION FAIR      78  24  13 SW13G18   29.80F
MONTROSE       FAIR      73  20  13 SW21G28   29.92F
EAGLE          MOSUNNY   68  25  19 SW21G32   29.92F
RIFLE          FAIR      72  30  21 W7G17     29.84F
DELTA          FAIR      78  27  15 S9G26     29.88F
NUCLA          FAIR      70  19  14 S13G25    29.98S
$$

COZ017>023-064>068-261900-
...SOUTHWEST COLORADO...

CITY           SKY/WX    TMP DP  RH WIND       PRES   REMARKS
DURANGO        FAIR      68  17  14 W9        30.02F
CORTEZ         FAIR      72  18  13 SW15G24   29.99S
PAGOSA SPRINGS FAIR      64  11  12 S9G21     30.09F
TELLURIDE      FAIR      57  16  20 SW10G28   30.11S
WOLF CREEK PAS FAIR      39  19  45 S25G39    30.28F
$$

COZ009-010-012-014-032>034-037-058>063-261900-
...CENTRAL COLORADO...

CITY           SKY/WX    TMP DP  RH WIND       PRES   REMARKS
ASPEN          FAIR      62  26  25 VRB7G16   29.99F
BUENA VISTA    PTSUNNY   60  29  29 SW5       30.01F
COPPER MTN     FAIR      45  21  39 W14G22    30.21S
BERTHOUD PASS  CLOUDY    37  28  70 SW21G29   30.21S
COTTONWOOD PAS PTSUNNY   57  30  35 N6        30.11F
GUNNISON       FAIR      61  30  31 SW9       30.02F
KREMMLING      FAIR      66  41  39 W18G28    29.96F
LEADVILLE      FAIR      52  23  32 S15G22    30.09S
SALIDA         CLOUDY    62  35  37 SW13G20   30.08R
SUNLIGHT       FAIR      50  23  34 SW12G28   30.15S
WILKERSON PASS CLOUDY    48  28  46 S12G20    30.20F
$$

COZ069>075-261900-
...SAN LUIS VALLEY/SANGRE DE CRISTO MOUNTAINS...

CITY           SKY/WX    TMP DP  RH WIND       PRES   REMARKS
ALAMOSA        FAIR      69  19  15 SW25G33   30.03F
DEL NORTE      FAIR      65  20  17 W13G18    30.05F
LA VETA PASS   FAIR      55  19  24 S21G38    30.28F
SAGUACHE       FAIR      66  27  22 S18G26    30.04F
$$

COZ035-036-038>040-261900-
...NORTHERN COLORADO FRONT RANGE...

CITY           SKY/WX    TMP DP  RH WIND       PRES   REMARKS
DENVER INTL AP PTSUNNY   62  48  60 E10G21    29.93F
DMNS CITY PARK   N/A     63  49  58 NE8G20    29.91F
AURORA         PTSUNNY   64  50  61 E12G21    29.92F
FRONT RANGE AP PTSUNNY   63  50  63 E10G20    29.94F
ERIE MUNI ARPT FAIR      59  45  59 NE7       29.93F
BOULDER MUN AP CLOUDY    54  45  71 NW5       29.94F
CENTENNIAL     FAIR      66  52  60 N8        29.91F
BROOMFIELD     PTSUNNY   59  46  63 E8        29.95F
FORT COLLINS   PTSUNNY   59  45  59 SE8       29.95F
LONGMONT       CLOUDY    59  45  58 CALM      29.96F HAZE
$$

COZ041-046-047-076>085-087-088-261900-
...PIKES PEAK/PALMER DIVIDE AND SOUTHERN FOOTHILLS...

CITY           SKY/WX    TMP DP  RH WIND       PRES   REMARKS
COLO. SPRINGS  FAIR      64  48  56 S23       29.99F
A. F. ACADEMY  FAIR      62  46  55 S17G23    29.97F
SCHRIEVER AFB  FAIR      62  47  58 S15       30.00S
CHEYENNE MTN   PTSUNNY   59  45  60 SE24G32   29.95S
ELLICOTT       FAIR     N/A N/A N/A S16G26    29.98F
FALCON         NOT AVBL
FORT CARSON    FAIR      64  47  52 S18       29.97F
LIMON          FAIR      64  48  56 S9G20     29.96F
MONUMENT HILL  FAIR      61  41  48 S21G28    30.00F
CANON CITY     NOT AVBL
WALSENBURG     FAIR      72  46  40 SE15      29.96F
TRINIDAD       FAIR      73  40  30 SE10G20   29.96F
$$

COZ042>045-048>051-090-091-261900-
...NORTHEAST COLORADO...

CITY           SKY/WX    TMP DP  RH WIND       PRES   REMARKS
GREELEY ARPT   PTSUNNY   58  44  60 E8        29.95F
AKRON          FAIR      60  45  57 SE8       29.95F
BURLINGTON     FAIR      65  52  62 NE6       29.96F
WRAY           FAIR      64  43  45 E5        29.95F
YUMA           FAIR      61  34  36 E6        29.95F
STERLING       FAIR      63  46  55 S5        29.94F
HOLYOKE        NOT AVBL
FORT MORGAN    FAIR      63  45  51 E7        29.96S
$$

COZ086-089-092>099-261900-
...SOUTHEAST COLORADO...

CITY           SKY/WX    TMP DP  RH WIND       PRES   REMARKS
PUEBLO         FAIR      69  48  47 S10G22    29.93F
LA JUNTA       FAIR      72  47  40 VRB7      29.93F
LAMAR          FAIR      75  46  35 N6        29.90F
SPRINGFIELD      N/A     73  46  38 E9        29.95F
$$



USA.gov is the U.S. government's official web portal to all federal, state and local government web resources and services.